Zurück zum Katalog

STARLINK-3253

AktivKommunikationVLEO
NORAD 51136·PAYLOAD·🇺🇸 United States

Gestartet Jan 19, 2022 von Cape Canaveral Space Force Station

Loading…

Nächste Überflüge (nächste 24 Stunden)

TLE

AktuellSource: CelesTrak SupGP

Epoche: Sep 14, 2026, 20:22 UTC

1 51136C 22005AJ  26257.84909722 -.00028673  00000+0 -84726-3 0  2572
2 51136  53.1572 155.7969 0001262  96.3003  34.2245 15.34400972    11

Verfolge STARLINK-3253 in Echtzeit mit AllMySat

Download on the App Store